Location: Monrovia
(34.7865°N, 86.7139°W)
Time: 22:08:33
(UTC+00:00)

Cosmos 1464 Rocket - Pass Details

Date: 14 July 2020
Orbit: 951 x 1002 km, 82.9° (Epoch: 08 August)

Event Time Altitude Azimuth Distance (km) Brightness Sun altitude
Exits shadow 08:58:16 21° 187° (S) 2,073 5.3 -18.5°
Maximum altitude 09:02:44 86° 274° (W) 1,009 4.0 -17.8°
Drops below altitude 10° 09:09:08 10° 5° (N) 2,772 7.1 -16.9°
Sets 09:11:40 0° 6° (N) 3,720 7.8 -16.5°
